| time (UTC) | temp C | wind direction | speed KPH | gust KPH | rain 1hr cm | rain 24hr cm | rain mn cm | humidity % | barometer mb |
| 20260505054526 | 17 | 140 | 8.0 | 14.5 | 0.00 | 0.00 | 0.00 | 63 | 1009.2 |
| 20260505054045 | 17 | 139 | 9.7 | 16.1 | 0.00 | 0.00 | 0.00 | 63 | 1009.3 |
| 20260505053538 | 17 | 166 | 11.3 | 16.1 | 0.00 | 0.00 | 0.00 | 63 | 1009.2 |
| 20260505053056 | 17 | 151 | 9.7 | 14.5 | 0.00 | 0.00 | 0.00 | 62 | 1009.4 |
| 20260505052526 | 17 | 152 | 9.7 | 17.7 | 0.00 | 0.00 | 0.00 | 61 | 1009.4 |
| 20260505052041 | 17 | 169 | 9.7 | 24.1 | 0.00 | 0.00 | 0.00 | 61 | 1009.3 |
| 20260505051601 | 17 | 165 | 11.3 | 24.1 | 0.00 | 0.00 | 0.00 | 61 | 1009.4 |
| 20260505051031 | 17 | 153 | 16.1 | 24.1 | 0.00 | 0.00 | 0.00 | 61 | 1009.4 |
| 20260505050524 | 17 | 157 | 14.5 | 19.3 | 0.00 | 0.00 | 0.00 | 60 | 1009.3 |
| 20260505041543 | 18 | 169 | 12.9 | 16.1 | 0.00 | 0.00 | 0.00 | 57 | 1008.9 |
| 20260505041044 | 18 | 165 | 12.9 | 16.1 | 0.00 | 0.00 | 0.00 | 57 | 1009.1 |
| 20260505040540 | 18 | 165 | 11.3 | 17.7 | 0.00 | 0.00 | 0.00 | 56 | 1009.0 |
| 20260505040035 | 18 | 175 | 12.9 | 19.3 | 0.00 | 0.00 | 0.00 | 56 | 1008.8 |
| 20260505035531 | 18 | 174 | 14.5 | 19.3 | 0.00 | 0.00 | 0.00 | 55 | 1008.9 |
| 20260505035026 | 18 | 195 | 14.5 | 20.9 | 0.00 | 0.00 | 0.00 | 55 | 1009.0 |
| 20260505034538 | 18 | 173 | 16.1 | 24.1 | 0.00 | 0.00 | 0.00 | 55 | 1008.9 |
| 20260505034032 | 18 | 180 | 17.7 | 22.5 | 0.00 | 0.00 | 0.00 | 55 | 1008.8 |
| 20260505033524 | 18 | 185 | 12.9 | 20.9 | 0.00 | 0.00 | 0.00 | 55 | 1008.8 |
| 20260505033039 | 18 | 173 | 12.9 | 17.7 | 0.00 | 0.00 | 0.00 | 55 | 1008.9 |
| 20260505032554 | 18 | 178 | 12.9 | 19.3 | 0.00 | 0.00 | 0.00 | 55 | 1009.0 |
| 20260505032024 | 18 | 160 | 14.5 | 20.9 | 0.00 | 0.00 | 0.00 | 55 | 1009.1 |
| 20260505031542 | 18 | 178 | 14.5 | 20.9 | 0.00 | 0.00 | 0.00 | 55 | 1009.1 |
| 20260505031038 | 18 | 205 | 16.1 | 19.3 | 0.00 | 0.00 | 0.00 | 55 | 1009.1 |
| 20260505030531 | 18 | 185 | 12.9 | 17.7 | 0.00 | 0.00 | 0.00 | 54 | 1009.1 |
| 20260505030024 | 18 | 188 | 14.5 | 17.7 | 0.00 | 0.00 | 0.00 | 54 | 1009.1 |
| 20260505025543 | 18 | 178 | 11.3 | 19.3 | 0.00 | 0.00 | 0.00 | 55 | 1009.0 |
| 20260505025035 | 18 | 183 | 11.3 | 14.5 | 0.00 | 0.00 | 0.00 | 54 | 1008.8 |
| 20260505024526 | 18 | 167 | 11.3 | 16.1 | 0.00 | 0.00 | 0.00 | 54 | 1008.8 |
| 20260505024105 | 18 | 162 | 11.3 | 16.1 | 0.00 | 0.00 | 0.00 | 54 | 1008.7 |
| 20260505023601 | 18 | 170 | 11.3 | 16.1 | 0.00 | 0.00 | 0.00 | 53 | 1008.8 |
| 20260505023037 | 18 | 175 | 9.7 | 16.1 | 0.00 | 0.00 | 0.00 | 54 | 1008.8 |
| 20260505022530 | 18 | 188 | 11.3 | 16.1 | 0.00 | 0.00 | 0.00 | 53 | 1008.7 |
| 20260505022027 | 19 | 158 | 11.3 | 19.3 | 0.00 | 0.00 | 0.00 | 53 | 1008.6 |
| 20260505021535 | 19 | 165 | 14.5 | 19.3 | 0.00 | 0.00 | 0.00 | 53 | 1008.5 |
| 20260505021028 | 19 | 174 | 12.9 | 17.7 | 0.00 | 0.00 | 0.00 | 53 | 1008.6 |
| 20260505020524 | 19 | 153 | 12.9 | 17.7 | 0.00 | 0.00 | 0.00 | 52 | 1008.5 |
| 20260505020042 | 19 | 161 | 12.9 | 25.7 | 0.00 | 0.00 | 0.00 | 52 | 1008.4 |
| 20260505015601 | 19 | 166 | 16.1 | 25.7 | 0.00 | 0.00 | 0.00 | 52 | 1008.5 |
| 20260505015034 | 20 | 168 | 12.9 | 17.7 | 0.00 | 0.00 | 0.00 | 52 | 1008.5 |
| 20260505014524 | 20 | 182 | 12.9 | 17.7 | 0.00 | 0.00 | 0.00 | 52 | 1008.7 |
| 20260505014044 | 20 | 186 | 9.7 | 16.1 | 0.00 | 0.00 | 0.00 | 52 | 1008.8 |
| 20260505013541 | 20 | 187 | 11.3 | 22.5 | 0.00 | 0.00 | 0.00 | 51 | 1008.6 |
| 20260505013041 | 20 | 196 | 14.5 | 22.5 | 0.00 | 0.00 | 0.00 | 51 | 1008.6 |
| 20260505012532 | 20 | 182 | 16.1 | 24.1 | 0.00 | 0.00 | 0.00 | 51 | 1008.5 |
| 20260505012029 | 20 | 192 | 19.3 | 27.4 | 0.00 | 0.00 | 0.00 | 50 | 1008.5 |
| 20260505011543 | 20 | 205 | 24.1 | 30.6 | 0.00 | 0.00 | 0.00 | 49 | 1008.4 |
| 20260505011100 | 20 | 196 | 22.5 | 30.6 | 0.00 | 0.00 | 0.00 | 47 | 1008.4 |
| 20260505010555 | 20 | 175 | 16.1 | 20.9 | 0.00 | 0.00 | 0.00 | 46 | 1008.2 |
| 20260505010027 | 20 | 171 | 14.5 | 24.1 | 0.00 | 0.00 | 0.00 | 46 | 1007.9 |
| 20260505005543 | 20 | 150 | 16.1 | 24.1 | 0.00 | 0.00 | 0.00 | 46 | 1007.9 |
| 20260505005043 | 20 | 169 | 14.5 | 22.5 | 0.00 | 0.00 | 0.00 | 45 | 1007.9 |
| 20260505004601 | 20 | 148 | 12.9 | 22.5 | 0.00 | 0.00 | 0.00 | 45 | 1007.9 |
| 20260505004059 | 20 | 161 | 12.9 | 19.3 | 0.00 | 0.00 | 0.00 | 45 | 1007.8 |
| 20260505003532 | 20 | 140 | 14.5 | 22.5 | 0.00 | 0.00 | 0.00 | 45 | 1007.9 |
| 20260505003026 | 21 | 167 | 16.1 | 22.5 | 0.00 | 0.00 | 0.00 | 44 | 1007.8 |
| 20260505002538 | 21 | 175 | 12.9 | 27.4 | 0.00 | 0.00 | 0.00 | 44 | 1007.7 |
| 20260505002032 | 21 | 160 | 14.5 | 27.4 | 0.00 | 0.00 | 0.00 | 44 | 1007.6 |
| 20260505001525 | 21 | 171 | 16.1 | 24.1 | 0.00 | 0.00 | 0.00 | 43 | 1007.5 |
| 20260505001026 | 21 | 168 | 17.7 | 24.1 | 0.00 | 0.00 | 0.00 | 43 | 1007.6 |
| 20260505000541 | 21 | 163 | 19.3 | 22.5 | 0.00 | 0.00 | 0.00 | 43 | 1007.6 |
| 20260505000042 | 21 | 161 | 14.5 | 22.5 | 0.00 | 0.00 | 0.00 | 43 | 1007.6 |
| 20260504235529 | 21 | 167 | 16.1 | 22.5 | 0.00 | 0.00 | 0.00 | 43 | 1007.5 |
| 20260504235048 | 21 | 175 | 14.5 | 20.9 | 0.00 | 0.00 | 0.00 | 43 | 1007.5 |
| 20260504234544 | 21 | 155 | 12.9 | 22.5 | 0.00 | 0.00 | 0.00 | 43 | 1007.5 |
| 20260504234038 | 21 | 159 | 14.5 | 22.5 | 0.00 | 0.00 | 0.00 | 41 | 1007.5 |
| 20260504233533 | 22 | 144 | 12.9 | 19.3 | 0.00 | 0.00 | 0.00 | 42 | 1007.5 |
| 20260504233024 | 22 | 154 | 12.9 | 22.5 | 0.00 | 0.00 | 0.00 | 41 | 1007.4 |
| 20260504232542 | 22 | 163 | 16.1 | 22.5 | 0.00 | 0.00 | 0.00 | 41 | 1007.4 |
| 20260504232038 | 22 | 168 | 14.5 | 25.7 | 0.00 | 0.00 | 0.00 | 41 | 1007.4 |
| 20260504231530 | 22 | 148 | 17.7 | 22.5 | 0.00 | 0.00 | 0.00 | 41 | 1007.4 |
| 20260504231047 | 22 | 162 | 12.9 | 22.5 | 0.00 | 0.00 | 0.00 | 41 | 1007.4 |
| 20260504230543 | 22 | 156 | 14.5 | 19.3 | 0.00 | 0.00 | 0.00 | 40 | 1007.4 |
| 20260504230042 | 22 | 161 | 16.1 | 20.9 | 0.00 | 0.00 | 0.00 | 39 | 1007.4 |
| 20260504225536 | 22 | 186 | 16.1 | 27.4 | 0.00 | 0.00 | 0.00 | 39 | 1007.4 |
| 20260504225034 | 23 | 167 | 19.3 | 29.0 | 0.00 | 0.00 | 0.00 | 39 | 1007.4 |
| 20260504224524 | 23 | 167 | 20.9 | 29.0 | 0.00 | 0.00 | 0.00 | 38 | 1007.5 |
| 20260504224044 | 23 | 194 | 12.9 | 27.4 | 0.00 | 0.00 | 0.00 | 38 | 1007.5 |
| 20260504223537 | 23 | 181 | 14.5 | 27.4 | 0.00 | 0.00 | 0.00 | 37 | 1007.4 |
| 20260504223031 | 23 | 184 | 19.3 | 25.7 | 0.00 | 0.00 | 0.00 | 36 | 1007.4 |
| 20260504222527 | 23 | 180 | 19.3 | 25.7 | 0.00 | 0.00 | 0.00 | 37 | 1007.5 |
| 20260504222038 | 23 | 188 | 16.1 | 22.5 | 0.00 | 0.00 | 0.00 | 36 | 1007.4 |
| 20260504221539 | 23 | 180 | 17.7 | 25.7 | 0.00 | 0.00 | 0.00 | 36 | 1007.4 |
| 20260504221057 | 23 | 189 | 16.1 | 27.4 | 0.00 | 0.00 | 0.00 | 37 | 1007.5 |
| 20260504220553 | 23 | 161 | 14.5 | 25.7 | 0.00 | 0.00 | 0.00 | 37 | 1007.5 |
| 20260504220027 | 23 | 169 | 17.7 | 25.7 | 0.00 | 0.00 | 0.00 | 37 | 1007.5 |
| 20260504215541 | 23 | 180 | 12.9 | 25.7 | 0.00 | 0.00 | 0.00 | 37 | 1007.5 |
| 20260504215035 | 23 | 184 | 16.1 | 29.0 | 0.00 | 0.00 | 0.00 | 36 | 1007.6 |
| 20260504214524 | 23 | 166 | 22.5 | 32.2 | 0.00 | 0.00 | 0.00 | 36 | 1007.6 |
| 20260504214042 | 23 | 181 | 24.1 | 37.0 | 0.00 | 0.00 | 0.00 | 36 | 1007.5 |
| 20260504213600 | 24 | 180 | 22.5 | 37.0 | 0.00 | 0.00 | 0.00 | 35 | 1007.6 |
| 20260504213033 | 24 | 188 | 20.9 | 33.8 | 0.00 | 0.00 | 0.00 | 35 | 1007.5 |
| 20260504212550 | 25 | 175 | 27.4 | 33.8 | 0.00 | 0.00 | 0.00 | 34 | 1007.5 |
| 20260504212024 | 25 | 157 | 16.1 | 32.2 | 0.00 | 0.00 | 0.00 | 35 | 1007.5 |
| 20260504211603 | 25 | 196 | 25.7 | 32.2 | 0.00 | 0.00 | 0.00 | 34 | 1007.5 |
| 20260504211043 | 25 | 199 | 19.3 | 27.4 | 0.00 | 0.00 | 0.00 | 34 | 1007.5 |
| 20260504210543 | 25 | 186 | 19.3 | 25.7 | 0.00 | 0.00 | 0.00 | 34 | 1007.5 |
| 20260504210036 | 25 | 178 | 17.7 | 29.0 | 0.00 | 0.00 | 0.00 | 34 | 1007.4 |
| 20260504205528 | 25 | 182 | 20.9 | 29.0 | 0.00 | 0.00 | 0.00 | 34 | 1007.5 |
| 20260504205025 | 25 | 157 | 22.5 | 29.0 | 0.00 | 0.00 | 0.00 | 34 | 1007.6 |
| 20260504204559 | 25 | 188 | 19.3 | 38.6 | 0.00 | 0.00 | 0.00 | 34 | 1007.7 |
| 20260504204059 | 25 | 164 | 20.9 | 38.6 | 0.00 | 0.00 | 0.00 | 34 | 1007.8 |
| 20260504203530 | 25 | 149 | 19.3 | 37.0 | 0.00 | 0.00 | 0.00 | 34 | 1007.9 |
| 20260504203106 | 25 | 141 | 20.9 | 37.0 | 0.00 | 0.00 | 0.00 | 34 | 1007.9 |
| 20260504202538 | 25 | 180 | 17.7 | 29.0 | 0.00 | 0.00 | 0.00 | 35 | 1007.9 |
| 20260504202034 | 25 | 163 | 19.3 | 35.4 | 0.00 | 0.00 | 0.00 | 34 | 1007.9 |
| 20260504201526 | 24 | 148 | 27.4 | 37.0 | 0.00 | 0.00 | 0.00 | 34 | 1008.0 |
| 20260504201043 | 24 | 181 | 24.1 | 37.0 | 0.00 | 0.00 | 0.00 | 34 | 1008.1 |
| 20260504200533 | 25 | 160 | 22.5 | 32.2 | 0.00 | 0.00 | 0.00 | 33 | 1008.1 |
| 20260504200030 | 25 | 177 | 20.9 | 33.8 | 0.00 | 0.00 | 0.00 | 34 | 1008.3 |
| 20260504195529 | 25 | 165 | 20.9 | 29.0 | 0.00 | 0.00 | 0.00 | 33 | 1008.2 |
| 20260504195027 | 25 | 190 | 22.5 | 30.6 | 0.00 | 0.00 | 0.00 | 34 | 1008.4 |
| 20260504194604 | 25 | 171 | 22.5 | 33.8 | 0.00 | 0.00 | 0.00 | 34 | 1008.4 |
| 20260504194042 | 25 | 161 | 22.5 | 32.2 | 0.00 | 0.00 | 0.00 | 34 | 1008.5 |
| 20260504193543 | 25 | 160 | 16.1 | 32.2 | 0.00 | 0.00 | 0.00 | 35 | 1008.6 |
| 20260504193041 | 24 | 171 | 24.1 | 37.0 | 0.00 | 0.00 | 0.00 | 35 | 1008.7 |
| 20260504192541 | 25 | 183 | 20.9 | 37.0 | 0.00 | 0.00 | 0.00 | 34 | 1008.7 |
| 20260504192041 | 25 | 224 | 17.7 | 33.8 | 0.00 | 0.00 | 0.00 | 34 | 1009.0 |
| 20260504191542 | 25 | 168 | 24.1 | 33.8 | 0.00 | 0.00 | 0.00 | 33 | 1008.9 |
| 20260504191104 | 24 | 173 | 22.5 | 32.2 | 0.00 | 0.00 | 0.00 | 34 | 1009.0 |
| 20260504190537 | 24 | 182 | 17.7 | 27.4 | 0.00 | 0.00 | 0.00 | 35 | 1009.0 |
| 20260504190035 | 24 | 119 | 22.5 | 30.6 | 0.00 | 0.00 | 0.00 | 35 | 1009.2 |
| 20260504185527 | 24 | 163 | 24.1 | 35.4 | 0.00 | 0.00 | 0.00 | 34 | 1009.2 |
| 20260504185025 | 24 | 159 | 22.5 | 38.6 | 0.00 | 0.00 | 0.00 | 34 | 1009.4 |
| 20260504184542 | 24 | 144 | 16.1 | 25.7 | 0.00 | 0.00 | 0.00 | 36 | 1009.4 |
| 20260504184044 | 24 | 179 | 14.5 | 30.6 | 0.00 | 0.00 | 0.00 | 35 | 1009.4 |
| 20260504183537 | 23 | 219 | 8.0 | 30.6 | 0.00 | 0.00 | 0.00 | 37 | 1009.6 |
| 20260504183059 | 23 | 194 | 22.5 | 33.8 | 0.00 | 0.00 | 0.00 | 35 | 1009.7 |
| 20260504182541 | 23 | 188 | 19.3 | 33.8 | 0.00 | 0.00 | 0.00 | 35 | 1009.8 |
| 20260504182041 | 23 | 142 | 17.7 | 33.8 | 0.00 | 0.00 | 0.00 | 36 | 1009.9 |
| 20260504181539 | 23 | 142 | 17.7 | 32.2 | 0.00 | 0.00 | 0.00 | 34 | 1009.9 |
| 20260504181040 | 23 | 180 | 22.5 | 32.2 | 0.00 | 0.00 | 0.00 | 36 | 1010.1 |
| 20260504180536 | 23 | 202 | 16.1 | 27.4 | 0.00 | 0.00 | 0.00 | 36 | 1010.1 |
| 20260504180038 | 23 | 139 | 20.9 | 30.6 | 0.00 | 0.00 | 0.00 | 35 | 1010.1 |
| 20260504175533 | 23 | 160 | 24.1 | 30.6 | 0.00 | 0.00 | 0.00 | 36 | 1010.2 |
| 20260504175026 | 23 | 222 | 14.5 | 30.6 | 0.00 | 0.00 | 0.00 | 34 | 1010.3 |
| 20260504174604 | 23 | 205 | 11.3 | 22.5 | 0.00 | 0.00 | 0.00 | 35 | 1010.3 |
| 20260504174036 | 23 | 215 | 12.9 | 20.9 | 0.00 | 0.00 | 0.00 | 37 | 1010.4 |
| 20260504173531 | 22 | 174 | 12.9 | 27.4 | 0.00 | 0.00 | 0.00 | 36 | 1010.4 |
| 20260504173025 | 22 | 234 | 16.1 | 27.4 | 0.00 | 0.00 | 0.00 | 38 | 1010.6 |
| 20260504172604 | 22 | 194 | 16.1 | 27.4 | 0.00 | 0.00 | 0.00 | 36 | 1010.7 |
| 20260504172043 | 22 | 190 | 19.3 | 27.4 | 0.00 | 0.00 | 0.00 | 36 | 1010.8 |
| 20260504171541 | 22 | 178 | 16.1 | 27.4 | 0.00 | 0.00 | 0.00 | 37 | 1010.7 |
| 20260504171037 | 22 | 260 | 9.7 | 20.9 | 0.00 | 0.00 | 0.00 | 38 | 1010.8 |
| 20260504170531 | 22 | 211 | 14.5 | 20.9 | 0.00 | 0.00 | 0.00 | 38 | 1010.9 |
| 20260504151044 | 18 | 244 | 19.3 | 37.0 | 0.00 | 0.00 | 0.00 | 40 | 1012.2 |
| 20260504150539 | 18 | 229 | 6.4 | 16.1 | 0.00 | 0.00 | 0.00 | 45 | 1012.3 |
| 20260504141039 | 17 | 269 | 16.1 | 29.0 | 0.00 | 0.00 | 0.00 | 41 | 1012.5 |
| 20260504140539 | 17 | 179 | 14.5 | 20.9 | 0.00 | 0.00 | 0.00 | 43 | 1012.4 |
| 20260504130541 | 14 | 157 | 16.1 | 22.5 | 0.00 | 0.00 | 0.00 | 45 | 1012.7 |
| 20260504110540 | 8 | 146 | 6.4 | 11.3 | 0.00 | 0.00 | 0.00 | 59 | 1013.1 |
| 20260504100534 | 7 | 136 | 6.4 | 8.0 | 0.00 | 0.00 | 0.00 | 64 | 1013.1 |
| 20260504081536 | 6 | 149 | 3.2 | 4.8 | 0.00 | 0.00 | 0.00 | 64 | 1013.6 |
| 20260504081041 | 6 | 149 | 3.2 | 8.0 | 0.00 | 0.00 | 0.00 | 63 | 1013.7 |
| 20260504080541 | 6 | 149 | 3.2 | 8.0 | 0.00 | 0.00 | 0.00 | 64 | 1013.7 |